Meath Environmental Platform

Observations for Trim Patrick St

Time AQI Temp °C Hum % Pres Pa CO μg/m³ H₂S μg/m³ NO μg/m³ NO₂ μg/m³ O₃ μg/m³ SO₂ μg/m³ PM1 μg/m³ PM2.5 μg/m³ PM10 μg/m³
Tuesday 4 August 2026
08:04 1 20.5 84 38,459 0.14 0.25 2.51 11.81 26.65 4.33 2 4.26 4.68
08:03 1 20.5 85 38,459 0.09 0.56 2.49 11.42 30.88 4.72 2 4.22 4.65
08:02 1 20.4 84 38,459 0.08 0 2.45 1.87 17.21 4.95 2 4.26 4.69
08:01 1 20.4 84 38,459 0.09 0 2.42 8.52 25.36 4.9 2 4.26 4.69
08:00 1 20.3 84 38,459 0.1 0 2.42 6.29 13.32 4.64 2 4.26 4.68
07:59 1 20.3 85 38,459 0.09 0 2.43 5.71 26.06 4.93 2 4.92 5.41
07:58 1 20.3 84 38,459 0.08 0 2.46 5.33 22.73 4.57 2.86 4.93 5.42
07:57 1 20.2 84 38,459 0.09 0 2.42 1.74 18.76 4.46 2 4.24 4.67
07:56 1 20.2 84 38,458 0.12 0.81 2.43 12.28 24.15 4.27 2 4.24 4.66
07:55 1 20.2 85 38,457 0.25 0 2.49 2.92 20.36 4.93 2.86 4.92 5.41
07:54 1 20.1 85 38,457 0.08 0 2.51 0 19.98 4.58 2 4.22 4.65
07:53 1 20.1 85 38,455 0.09 0.37 2.45 5.56 23.38 3.65 2 4.21 4.63
07:52 1 20.1 85 38,454 0.09 0 2.45 7.25 25.7 4.22 2 4.22 4.65
07:51 1 20.1 85 38,452 0.07 0 2.49 4.81 24.8 3.94 2 4.91 5.4
07:50 1 20 85 38,449 0.07 0 2.4 0 13.08 4.06 2 4.22 4.64
07:49 1 20 85 38,445 0.09 0 2.47 5.21 22.4 3.14 2 4.91 5.4
07:48 1 20 85 38,440 0.09 0 2.53 11.05 29.3 3.1 2 4.21 4.63
07:47 1 20 85 38,433 0.1 0 2.47 0 18.43 3.95 2 4.89 5.38
07:46 1 20 85 38,424 0.11 0.58 2.45 7.94 31.01 3.5 2.86 4.88 5.36
07:45 1 20 85 38,411 0.12 0 2.5 11.14 18.11 3.57 2 4.88 5.36